Погода в Бирзаи

Погода в Бирзаи : погода сейчас, прогноз погоды и архив. Всё, что Вы хотите узнать о погоде в Бирзаи!

Поиск расширенной информации на нашем сайте:

Другие новости

Новости СМИ2

Главная страница сайта

Новости сайта

03.07.2017

Напоминаем, что на нашем специализированном сайте Метеоцентр.Азия вы можете получить высокодетализированные автоматические прогнозы погоды по пунктам России, СНГ и мира в авиационном формате (включающие направление и скорость ветра, видимость, явления погоды, количество и форму облачности, нижнюю и верхнюю границу облачности).


Погода в Бирзаи - сегодня

Время (UTC), дата Ветер
(°,м/с) 
Видим.   Явления Облачность Т
(°С)
Тd
(°С)
f(%) Тe
(°С)
Pmin
(гПа)
dP
(гПа)
Po
(мм)
O2
(г/м3)
Тmin Tmax R s Состояние
почвы
21 14.02.18 110 (В) 2-4{04}  11000 м    4/0 верхняя 
[Cs]
-8 -9.8 87 -10  1027.3  0.4  764  317           
00 15.02.18 100 (В) 10 км    4/0 верхняя 
[Cs]
-8.6 -10.1 89 -8  1027.5  0.2             
03 15.02.18 тихо () -2{03}  9000 м    3/0 верхняя 
[Ci fib]
-9.8 -11 91 -10  1027.8  0.2  765  320           
06 15.02.18 110 (В) 2-3{04}  7000 м  дымка  8/0 верхняя 
[Cs]
-10.2 -10.8 95 -12  1028.2  0.4  765  321  -10.3      равномерный
сухой снег
100% 
09 15.02.18 120 (ЮВ) 3-4{04}  8000 м  дымка  10/10 500 м 
[St]
-7.1 -8.8 88 -10  1028.7  0.6  765  317           
12 15.02.18 190 (Ю) 10 км    9/4 1000 м средняя 
[Sc|Ac trans]
-3.8 -7.5 75 -5  1028  -0.6             
15 15.02.18 120 (ЮВ) 3-4{05}  9000 м  дым  9/0 средняя, верхняя 
[Ac trans|Cs]
-3.9 -7.2 78 -6  1027.4  -0.6  765  313           
18 15.02.18 120 (ЮВ) 2-3{04}  5000 м  в посл. час снег  9/9 1470 м 
[Sc]
-6.1 -8 86 -8  1027.2  -0.2  764  315    -3.4  0.0   
21 15.02.18 тихо () -2{04}  6000 м  дымка  ясно 
-7.1 -8.8 88 -7  1026.6  -0.7  764  316           
00 16.02.18 120 (ЮВ) 5000 м  дымка  ясно 
-9.3 -10 95 -12  1026  -0.6             
03 16.02.18 120 (ЮВ) 2-4{04}  6000 м  дымка  9/0 верхняя 
[Cs]
-8.9 -10 92 -11  1024.7  -1.3  762  318           
06 16.02.18 120 (ЮВ) 3-5{05}  4500 м  слаб. снег  10/0 средняя 
[As op]
-6.6 -7.8 91 -9  1023.1  -1.5  761  314  -10.1    0.0  равномерный
сухой снег
100% 
09 16.02.18 120 (ЮВ) 4-6{06}  3800 м  слаб. снег  10/10 1350 м 
[Ns]
-4.9 -5.9 93 -8  1022.3  -0.8  761  312           
12 16.02.18 120 (ЮВ) 3-4{07}  4700 м  слаб. снег  10/10 480 м 
[Frnb|Ns]
-3.8 -4.6 94 -6  1021  -1.3  760  311      0.2   
15 16.02.18 120 (ЮВ) 2-4{06}  5000 м  слаб. снег  10/10 420 м 
[Frnb|Ns]
-3.1 -4.5 90 -4  1020.2  -0.8  759  309           
18 16.02.18 120 (ЮВ) 1-3{04}  2000 м  слаб. снег  10/10 540 м 
[Frnb|Ns]
-3.3 -4 95 -3  1020.1  -0.1  759  309    -3  0.5   
21 16.02.18 130 (ЮВ) 1-2{03}  1800 м  слаб. снег  10/10 800 м 
[Ns]
-3.7 -3.9 99 -3  1019.4  -0.7  759  310           
00 17.02.18 тихо () -2{02}  2200 м  слаб. снег  10/10 300 м 
[Frnb|Ns]
-3.9 -4.1 98 -4  1019.1  -0.3  758  310      0.6   
03 17.02.18 тихо () -1{02}  1900 м  слаб. снег  10/10 400 м 
[Frnb|Ns]
-3.5 -4 96 -4  1018.5  -0.6  758  309           
06 17.02.18 тихо () -2{02}  2300 м  в посл. час снег  10/10 570 м 
[Sc]
-4 -4.2 99 -4  1017.8  -0.7  757  309  -4.2    0.8  равномерный
сухой снег
100% 
09 17.02.18 050 (СВ) 1-3{03}  1500 м  слаб. снег  10/10 630 м 
[Ns]
-2.3 -2.9 96 -2  1017.6  -0.2  757  307           
12 17.02.18 310 (СЗ) 2-4{04}  2200 м  слаб. снег  10/8 300 м средняя 
[Frnb|As op]
-2.3 -2.9 96 -3  1017.8  0.2  757  308      0.5   
15 17.02.18 300 (СЗ) 1-3{06}  2700 м  слаб. снег  10/10 600 м 
[Ns]
-2.8 -3.8 93 -2  1018.5  0.7  758  308           
18 17.02.18 300 (СЗ) 2-4{05}  1800 м  слаб. снег  10/10 300 м 
[Frnb|Ns]
-3.4 -3.8 97 -5  1019.2  0.7  758  309    -1.5   
21 17.02.18 300 (СЗ) 2-4{04}  2200 м  слаб. снег  10/10 180 м 
[Frnb|Ns]
-4.1 -4.3 99 -5  1019.8  0.6  759  310           
Время (UTC), дата Ветер
(°,м/с) 
Видим.   Явления Облачность Т
(°С)
Тd
(°С)
f(%) Тe
(°С)
Pmin
(гПа)
dP
(гПа)
Po
(мм)
O2
(г/м3)
Тmin Tmax R s Состояние
почвы

Для получения пояснительной информации подведите курсор к названию столбца.

ПОГОДА в Бирзаи - архив

Всё, что Вы хотите узнать о погоде в Бирзаи - удобно и подробно!

Выберите нужную дату (начиная с 1 января 2015* года) и нажмите кнопку "Найти".
Будут отображены архивные сводки погоды по пункту Бирзаи, начиная с указанной даты.


Отображать данные в формате CSV (для использования в таблицах Excel)


Внимание! Наш архив погоды предназначен исключительно для личного некоммерческого использования в познавательных целях. Если Вам необходимы официальные справки о состоянии погоды (для производственных, юридических, коммерческих и т.п. целей), обращайтесь в органы Росгидромета.

*Примечание: данная дата относится к архиву по метеостанциям СССР (Россия, СНГ, Балтия).
Архив по метеостанциям Зарубежной Европы и Азии (кроме Китая) хранится 10 дней, по другим регионам земного шара (Китай, Африка, Америка, Австралия, Океания) - 1 день.

Бирзаи - район местоположения метеостанции


Название, широта, долгота, высота метеостанции:
Бирзаи 56.2°ш. 24.8°д. 62 м над ур. моря [Литва]

Дополнительная информация

В oтличие oт бoльшинства пoгoдных сайтoв мы публикуем пoдрoбную метеoинфoрмацию в детальнoм прoфессиoнальнoм фoрмате.

Характеристики температуры и влажнoсти вoздуха измеряются на высoте 2 м в тени вдали oт зданий и деревьев.
Скoрoсть ветра измеряется на высoте 10 м (на урoвне рoста челoвека скoрoсть ветра ниже в 1.5-2 раза). Если метеoстанция нахoдится в гoрoде или в лесу, тo скoрoсть ветра занижена на 2-4 м/с пo сравнению с oткрытым местoм. Скoрoсть ветра над акватoриями крупных рек и oзёр, а также на вершинах хoлмoв на 2-5 м/с выше, чем в oбычных услoвиях.
Атмoсфернoе давление в разных тoчках местнoсти мoжет значительнo oтличаться oт давления на метеoстанции, в зависимoсти oт услoвий рельефа (при пoдъёме на 10 м давление пoнижается примернo на 1 мм рт.ст.).